[[{"header":{"parameterUnit":"m.s-1","parameterCategory":2,"la1":30.2991,"la2":30.254,"lo1":-89.0895,"lo2":-89.0444,"dy":0.0017,"dx":0.0017,"nx":28,"ny":28,"refTime":"2023-07-17T21:00:00:Z","depth":"0","parameterNumber":2,"parameterNumberName":"U-component_of_CURRENTS"},"data":[0,0,0,0,0,0,0,0,0,0,0,0,0,0,0,0,0,0,0,0,0,0,0,0,0,0,0,0,0,0,0,0,0,0,0,0,0,0,0,0,0,0,0,0,0,0,0,0,0,0,0,0,0,0,0,0,0,0,0.2591,0.2591,0,0.2617,0.2617,0.2617,0.2572,0.257,0.2569,0.2567,0.2573,0.2575,0.2576,0,0,0,0,0,0,0,0,0,0,0,0,0,0.2615,0.2614,0.2591,0.2591,0.2591,0.2617,0.2617,0.2617,0.2572,0.257,0.2569,0.2567,0.2573,0.2574,0.2576,0,0,0,0,0,0,0,0,0,0,0,0,0,0.2619,0.2613,0.2591,0.2572,0.257,0.2617,0.2617,0.2618,0.2573,0.257,0.2568,0.2566,0.2572,0.2574,0.2577,0.2637,0,0,0.2584,0.2585,0,0,0,0,0,0,0,0,0.2618,0.2618,0.2574,0.2573,0.2572,0.2589,0.2628,0.2623,0.2573,0.2572,0.2567,0.2565,0.2578,0.258,0.259,0.2637,0.2637,0.2584,0.2585,0.2586,0.2587,0,0,0,0,0,0,0,0.2618,0.2617,0.2601,0.2575,0.2573,0.2601,0.2598,0.2627,0.2587,0.2572,0.2568,0.2572,0.2577,0.2588,0.259,0.2637,0.2584,0.2586,0.2587,0.2588,0.2849,0.2854,0,0,0,0,0,0,0.2611,0.2616,0.26,0.2602,0.259,0.2602,0.2599,0.2586,0.2587,0.2585,0.2574,0.257,0.2585,0.2587,0.259,0.2771,0.2586,0.2589,0.259,0.2843,0.285,0.2856,0,0,0,0,0,0,0.2612,0.2609,0.2599,0.2611,0.2611,0.2603,0.259,0.2587,0.2601,0.2589,0.2586,0.259,0.2583,0.2586,0.2674,0.2766,0.259,0.2592,0.2837,0.2845,0.2853,0.3064,0,0,0,0,0,0,0.2612,0.2609,0.2601,0.261,0.261,0.2661,0.2592,0.2589,0.2607,0.2602,0.2603,0.26,0.2582,0.2671,0.2676,0.2767,0.2594,0.283,0.2841,0.285,0.305,0.3078,0.3103,0,0,0,0,0,0.2612,0.2614,0.26,0.2598,0.2597,0.2665,0.267,0.2656,0.261,0.2652,0.2667,0.26,0.274,0.2679,0.2683,0.2776,0.2825,0.2838,0.285,0.3038,0.3073,0.3102,0,0,0,0,0,0,0.2627,0.261,0.2594,0.259,0.264,0.2657,0.2684,0.2671,0.2712,0.27,0.2673,0.2678,0.2793,0.2762,0.2695,0.2885,0.2771,0.2785,0.2913,0.2945,0.2971,0.297,0.2596,0,0,0,0,0,0.2626,0.2618,0.2637,0.2645,0.2668,0.2679,0.2698,0.2698,0.2731,0.2742,0.275,0.2776,0.285,0.2876,0.2922,0.3021,0.2985,0.3085,0.3112,0.3134,0.3141,0.3228,0.3262,0.2897,0.2897,0.2896,0,0,0.2642,0.2626,0.2627,0.2649,0.2675,0.2768,0.2686,0.2736,0.2825,0.2741,0.2858,0.287,0.2901,0.3029,0.3075,0.3011,0.3214,0.315,0.3168,0.3163,0.3245,0.328,0.3311,0.2905,0.2904,0.2902,0,0,0.2703,0.2658,0.2696,0.2748,0.2793,0.2822,0.2845,0.2886,0.2912,0.3031,0.3008,0.3086,0.3166,0.3224,0.3262,0.3462,0.3358,0.3462,0.3588,0.3675,0.3705,0.3731,0.3697,0.3718,0.3468,0.3469,0.3469,0,0.2728,0.2772,0.2732,0.2811,0.2875,0.2861,0.2976,0.3026,0.3095,0.3131,0.3099,0.3248,0.3278,0.3438,0.3523,0.3524,0.35,0.3462,0.3708,0.3733,0.3756,0.3715,0.3736,0.348,0.3479,0.3478,0.3477,0,0.2845,0.2898,0.2939,0.3032,0.3097,0.3193,0.326,0.3321,0.334,0.3375,0.3505,0.355,0.3622,0.3668,0.3669,0.385,0.3754,0.3735,0.3619,0.3805,0.3749,0.3767,0.3497,0.3493,0.3489,0.3486,0,0,0.2867,0.2998,0.3016,0.31,0.3221,0.3286,0.344,0.3567,0.3626,0.3704,0.3804,0.3962,0.391,0.3951,0.3943,0.4029,0.4186,0.3959,0.3958,0.3907,0.4289,0.3951,0.3936,0.4206,0.4211,0.4216,0.417,0,0.2992,0.318,0.3207,0.3416,0.3538,0.3573,0.37,0.3791,0.3849,0.3936,0.3984,0.4068,0.4041,0.4057,0.4162,0.4175,0.4248,0.4194,0.413,0.4126,0.3792,0.3953,0.3716,0.3633,0.4186,0.4189,0.4191,0,0.3113,0.3223,0.3445,0.3597,0.3643,0.3749,0.3895,0.3999,0.4103,0.4131,0.4206,0.4202,0.4335,0.4282,0.4401,0.4357,0.4358,0.4356,0.4353,0.3975,0.3824,0.3547,0.3643,0.3593,0.4217,0.4215,0.4213,0,0.3179,0.3381,0.3558,0.3629,0.3804,0.3874,0.3946,0.4051,0.4104,0.4227,0.4245,0.4372,0.4398,0.4477,0.4431,0.4449,0.4498,0.4521,0.4208,0.4178,0.3929,0.3867,0.3951,0.4639,0.4639,0.464,0.464,0,0.3314,0.3443,0.3588,0.3694,0.3836,0.3918,0.4031,0.4106,0.4182,0.4231,0.4313,0.4347,0.4458,0.4461,0.447,0.4324,0.4523,0.4238,0.4172,0.3985,0.3932,0.3829,0.3814,0.4638,0.4638,0.4638,0.4639,0,0.3378,0.3489,0.3676,0.3847,0.3882,0.3971,0.4047,0.4098,0.4163,0.4232,0.4261,0.435,0.4316,0.4308,0.4378,0.4293,0.4082,0.414,0.3826,0.3723,0.3357,0.336,0.3141,0.3082,0.3828,0.382,0.3813,0,0.3435,0.3553,0.375,0.3806,0.3878,0.398,0.4019,0.4096,0.4131,0.4203,0.4227,0.4208,0.4153,0.4022,0.3872,0.3727,0.3742,0.3423,0.3447,0.33,0.3264,0.3178,0.3147,0.3205,0.3194,0.3185,0.3177,0,0.3541,0.3606,0.3741,0.3855,0.3919,0.397,0.4027,0.4038,0.4097,0.4099,0.4064,0.4015,0.3823,0.3529,0.3273,0.3197,0.3213,0.3218,0.3235,0.2901,0.2658,0.2577,0.3204,0.3095,0.3103,0.3109,0.3114,0.3117,0.3581,0.3674,0.3821,0.3884,0.3937,0.3923,0.3871,0.3887,0.3858,0.3726,0.3827,0.3563,0.3305,0.2888,0.2779,0.2423,0.257,0.2358,0.2405,0.2356,0.2204,0.2542,0.2244,0.2247,0.225,0.2253,0.2255,0,0.3642,0.3728,0.3815,0.3877,0.3833,0.3871,0.3829,0.3676,0.3523,0.3402,0.3257,0.2818,0.2481,0.2258,0.1875,0.1703,0.1717,0.1651,0.1629,0.1677,0.2134,0.2014,0.1448,0.1448,0.1448,0.1448,0.1448,0.1448,0.369,0.3784,0.3801,0.3732,0.3711,0.3534,0.3434,0.322,0.3044,0.2599,0.2248,0.2103,0.1928,0.1593,0.1328,0.1284,0.1295,0.1039,0.1221,0.1687,0.1764,0.1837,0.173,0.1113,0.1113,0.069,0.0686,0.0684]},{"header":{"parameterUnit":"m.s-1","parameterCategory":2,"la1":30.2991,"la2":30.254,"lo1":-89.0895,"lo2":-89.0444,"dy":0.0017,"dx":0.0017,"nx":28,"ny":28,"refTime":"2023-07-17T21:00:00:Z","depth":"0","parameterNumber":3,"parameterNumberName":"V-component_of_CURRENTS"},"data":[0,0,0,0,0,0,0,0,0,0,0,0,0,0,0,0,0,0,0,0,0,0,0,0,0,0,0,0,0,0,0,0,0,0,0,0,0,0,0,0,0,0,0,0,0,0,0,0,0,0,0,0,0,0,0,0,0,0,0.0329,0.0329,0,0.0339,0.0339,0.0339,0.0318,0.0318,0.0317,0.0317,0.0346,0.0347,0.0349,0,0,0,0,0,0,0,0,0,0,0,0,0,0.029,0.029,0.0329,0.0329,0.033,0.0339,0.0339,0.0339,0.0318,0.0318,0.0317,0.0316,0.0346,0.0347,0.0349,0,0,0,0,0,0,0,0,0,0,0,0,0,0.0303,0.0291,0.0329,0.0321,0.0321,0.0339,0.0339,0.0339,0.0318,0.0318,0.0317,0.0316,0.0345,0.0347,0.0349,0.0378,0,0,0.0355,0.0356,0,0,0,0,0,0,0,0,0.0302,0.0304,0.0322,0.0322,0.0322,0.0327,0.0336,0.0353,0.0319,0.0318,0.0316,0.0316,0.0343,0.0345,0.0347,0.0379,0.038,0.0355,0.0356,0.0357,0.0358,0,0,0,0,0,0,0,0.0301,0.0303,0.0332,0.0323,0.0322,0.0316,0.0317,0.0339,0.0335,0.0318,0.0317,0.032,0.0343,0.0345,0.0347,0.0381,0.0355,0.0357,0.0358,0.0359,0.0459,0.0461,0,0,0,0,0,0,0.0304,0.0303,0.0331,0.0332,0.0311,0.0318,0.0319,0.0325,0.0334,0.0335,0.0321,0.0319,0.0342,0.0345,0.0349,0.0385,0.0357,0.0359,0.036,0.0458,0.046,0.0461,0,0,0,0,0,0,0.0303,0.0306,0.0331,0.0318,0.0321,0.032,0.0327,0.0326,0.0328,0.0336,0.0337,0.0324,0.0342,0.0346,0.0366,0.0386,0.036,0.0362,0.0456,0.0458,0.046,0.0457,0,0,0,0,0,0,0.0302,0.0306,0.0313,0.0319,0.0322,0.0342,0.0328,0.0327,0.0332,0.033,0.0339,0.0341,0.0341,0.0363,0.0368,0.0388,0.0363,0.0454,0.0457,0.046,0.0455,0.0459,0.0462,0,0,0,0,0,0.03,0.0313,0.0313,0.0317,0.0331,0.0343,0.0344,0.0339,0.0333,0.0337,0.0341,0.034,0.0385,0.0365,0.0371,0.0392,0.0453,0.0456,0.046,0.0454,0.0458,0.0462,0,0,0,0,0,0,0.0297,0.0313,0.0312,0.0329,0.0335,0.034,0.0347,0.0344,0.035,0.035,0.0352,0.0354,0.0383,0.0394,0.0372,0.0433,0.0423,0.0427,0.0417,0.0421,0.0424,0.0475,0.0365,0,0,0,0,0,0.0302,0.0316,0.0326,0.0338,0.0345,0.0348,0.0352,0.0349,0.0356,0.0357,0.036,0.0377,0.0404,0.0414,0.0435,0.0464,0.0501,0.0487,0.049,0.0492,0.054,0.0648,0.0666,0.0472,0.0472,0.0472,0,0,0.0304,0.0315,0.0322,0.0338,0.0346,0.0353,0.0348,0.0359,0.0365,0.0362,0.0373,0.0388,0.0415,0.0444,0.046,0.0452,0.0547,0.0497,0.0498,0.0546,0.0654,0.0673,0.069,0.0475,0.0474,0.0474,0,0,0.0313,0.0327,0.0339,0.0346,0.0359,0.0363,0.0367,0.0372,0.0377,0.0388,0.0398,0.044,0.0446,0.0491,0.051,0.0555,0.0563,0.0543,0.06,0.0702,0.0719,0.0735,0.0716,0.0731,0.0543,0.0543,0.0543,0,0.0314,0.033,0.0344,0.0353,0.0365,0.0367,0.038,0.0387,0.0394,0.0429,0.0391,0.0481,0.0484,0.0576,0.0577,0.0567,0.0584,0.0571,0.0707,0.0725,0.0742,0.0719,0.0735,0.0543,0.0543,0.0543,0.0543,0,0.0328,0.0338,0.0349,0.0362,0.0377,0.039,0.0404,0.0424,0.0426,0.0447,0.0527,0.0545,0.0615,0.0607,0.0596,0.0721,0.0673,0.0696,0.0695,0.0761,0.0731,0.0748,0.0544,0.0544,0.0544,0.0544,0,0,0.0336,0.0355,0.0358,0.0374,0.0386,0.0408,0.0434,0.0488,0.0551,0.0552,0.0652,0.0681,0.0717,0.0748,0.0756,0.0831,0.0906,0.0806,0.0811,0.0782,0.1047,0.0952,0.096,0.0952,0.0958,0.0962,0.0944,0,0.0342,0.0366,0.0375,0.0404,0.0422,0.0447,0.0486,0.0538,0.0583,0.0676,0.0736,0.0819,0.0761,0.0809,0.0876,0.0938,0.0968,0.0904,0.0996,0.0997,0.0904,0.0986,0.0973,0.0955,0.0961,0.0964,0.0966,0,0.0352,0.0371,0.0397,0.0454,0.047,0.049,0.0599,0.0635,0.0761,0.0808,0.091,0.0956,0.1072,0.1016,0.1136,0.1095,0.1072,0.1086,0.1087,0.1035,0.094,0.0912,0.0987,0.0994,0.0993,0.099,0.0988,0,0.0363,0.0394,0.0423,0.0433,0.0489,0.0532,0.0576,0.0685,0.0768,0.0917,0.1013,0.1127,0.1221,0.1257,0.1242,0.1212,0.1354,0.1319,0.1189,0.1175,0.1209,0.1192,0.1319,0.1402,0.1402,0.1402,0.1402,0,0.0373,0.0401,0.0434,0.045,0.053,0.0559,0.0677,0.0746,0.0889,0.1038,0.1092,0.124,0.1302,0.137,0.1316,0.1302,0.1405,0.1231,0.1209,0.1191,0.1174,0.1217,0.1206,0.1401,0.1402,0.1402,0.1402,0,0.0393,0.0398,0.0443,0.0502,0.0532,0.0595,0.0727,0.0837,0.0944,0.1149,0.1209,0.1371,0.1455,0.1434,0.1503,0.1407,0.1385,0.1338,0.1241,0.121,0.1083,0.1069,0.1159,0.1208,0.1216,0.1214,0.1212,0,0.041,0.0427,0.0487,0.0534,0.0565,0.0659,0.0752,0.0861,0.0992,0.1237,0.1361,0.1488,0.1603,0.16,0.1478,0.135,0.1341,0.1221,0.1186,0.1111,0.1082,0.1062,0.1098,0.1177,0.1175,0.1174,0.1173,0,0.0457,0.0469,0.051,0.0596,0.0679,0.0797,0.0931,0.1039,0.1211,0.1383,0.162,0.1722,0.1694,0.1618,0.1406,0.131,0.1241,0.1184,0.1209,0.1163,0.1062,0.1084,0.1055,0.1161,0.1162,0.1163,0.1163,0.1164,0.0501,0.0541,0.059,0.068,0.0782,0.0944,0.1058,0.1225,0.1437,0.169,0.1768,0.1887,0.1733,0.1469,0.1352,0.1115,0.1142,0.1047,0.1052,0.1049,0.1086,0.0958,0.0981,0.0981,0.0981,0.0981,0.0982,0,0.0557,0.0604,0.0687,0.0801,0.0937,0.0982,0.1196,0.1326,0.1578,0.1749,0.1916,0.1841,0.167,0.1449,0.1136,0.1024,0.1028,0.098,0.1014,0.1074,0.106,0.105,0.097,0.097,0.097,0.097,0.097,0.097,0.0594,0.0666,0.0706,0.0917,0.102,0.121,0.1338,0.1521,0.1653,0.1825,0.1832,0.1838,0.1707,0.1273,0.106,0.1013,0.1056,0.0957,0.1029,0.1048,0.1057,0.1065,0.1059,0.0982,0.0982,0.1077,0.1077,0.1078]}],[{"header":{"parameterUnit":"m.s-1","parameterCategory":2,"la1":30.2991,"la2":30.254,"lo1":-89.0895,"lo2":-89.0444,"dy":0.0017,"dx":0.0017,"nx":28,"ny":28,"refTime":"2023-07-17T21:00:00:Z","depth":"2","parameterNumber":2,"parameterNumberName":"U-component_of_CURRENTS"},"data":[0,0,0,0,0,0,0,0,0,0,0,0,0,0,0,0,0,0,0,0,0,0,0,0,0,0,0,0,0,0,0,0,0,0,0,0,0,0,0,0,0,0,0,0,0,0,0,0,0,0,0,0,0,0,0,0,0,0,0.2034,0.2035,0,0.2051,0.2051,0.2051,0.2047,0.2048,0.2048,0.2048,0.2084,0.2085,0.2086,0,0,0,0,0,0,0,0,0,0,0,0,0,0.2011,0.2011,0.2034,0.2035,0.2036,0.2051,0.2051,0.2051,0.2047,0.2048,0.2048,0.2049,0.2084,0.2085,0.2086,0,0,0,0,0,0,0,0,0,0,0,0,0,0.2017,0.2011,0.2034,0.2041,0.2043,0.2052,0.2051,0.205,0.2047,0.2048,0.2048,0.2049,0.2084,0.2085,0.2086,0.2081,0,0,0.2089,0.2089,0,0,0,0,0,0,0,0,0.2017,0.2017,0.2039,0.2041,0.2043,0.2054,0.2057,0.2064,0.2047,0.2038,0.2048,0.2049,0.208,0.2081,0.2073,0.2083,0.2084,0.2089,0.2089,0.209,0.209,0,0,0,0,0,0,0,0.2017,0.2017,0.2034,0.204,0.2042,0.2049,0.2049,0.2057,0.2051,0.2039,0.204,0.2054,0.208,0.2072,0.2074,0.2085,0.2089,0.209,0.209,0.209,0.2255,0.2258,0,0,0,0,0,0,0.2027,0.2016,0.2033,0.2035,0.2039,0.2049,0.205,0.2044,0.205,0.2054,0.2053,0.2054,0.207,0.2073,0.2076,0.2158,0.209,0.2091,0.2091,0.2251,0.2255,0.2259,0,0,0,0,0,0,0.2026,0.2028,0.2033,0.2033,0.2035,0.205,0.2043,0.2044,0.2065,0.2062,0.2065,0.2077,0.2071,0.2074,0.2117,0.2156,0.2091,0.2092,0.2246,0.2252,0.2257,0.2267,0,0,0,0,0,0,0.2025,0.2027,0.2032,0.2033,0.2036,0.2059,0.2044,0.2044,0.2074,0.2075,0.2083,0.2085,0.2071,0.2116,0.2118,0.2156,0.2093,0.2241,0.2249,0.2256,0.2262,0.2273,0.2282,0,0,0,0,0,0.2024,0.2043,0.2032,0.2035,0.2039,0.2061,0.2062,0.207,0.2075,0.2088,0.2104,0.2086,0.2164,0.2118,0.212,0.216,0.2238,0.2247,0.2255,0.2258,0.2271,0.2281,0,0,0,0,0,0,0.2048,0.2045,0.2033,0.2051,0.2061,0.2063,0.2081,0.2089,0.2108,0.2111,0.211,0.2114,0.2171,0.218,0.213,0.224,0.2209,0.2218,0.2211,0.2223,0.2232,0.2329,0.2093,0,0,0,0,0,0.2052,0.2054,0.2057,0.2072,0.2077,0.2081,0.2094,0.2097,0.2114,0.2123,0.2148,0.2179,0.2204,0.2223,0.2248,0.2292,0.2344,0.2335,0.2344,0.2352,0.2441,0.2581,0.2611,0.2287,0.2287,0.2287,0,0,0.2065,0.2066,0.2067,0.2077,0.2078,0.2087,0.2089,0.2113,0.2136,0.2125,0.2184,0.2208,0.2227,0.2277,0.2307,0.2288,0.2448,0.2363,0.2368,0.2455,0.2593,0.2625,0.2653,0.2293,0.2292,0.2291,0,0,0.2103,0.209,0.2107,0.2099,0.2112,0.2115,0.2131,0.2157,0.2182,0.2235,0.2239,0.2313,0.2346,0.2382,0.2394,0.2488,0.2494,0.2489,0.2609,0.274,0.2768,0.2794,0.2785,0.281,0.2493,0.2493,0.2493,0,0.2115,0.2112,0.2121,0.2123,0.2115,0.2132,0.2138,0.2167,0.2216,0.2265,0.2268,0.241,0.2409,0.2496,0.254,0.2509,0.2554,0.2536,0.2752,0.2779,0.2806,0.2791,0.2819,0.2495,0.2494,0.2494,0.2494,0,0.2156,0.2133,0.2141,0.2134,0.2153,0.2145,0.2179,0.2235,0.2282,0.233,0.2464,0.2508,0.261,0.261,0.2604,0.2785,0.2736,0.2735,0.2711,0.2839,0.2814,0.2842,0.2497,0.2496,0.2496,0.2495,0,0,0.2181,0.2166,0.2157,0.2144,0.2132,0.2161,0.2213,0.2281,0.2361,0.2459,0.2594,0.2682,0.2765,0.2799,0.2811,0.2949,0.3105,0.2949,0.2954,0.292,0.3325,0.2975,0.2971,0.3152,0.316,0.3167,0.3188,0,0.2179,0.218,0.2179,0.2175,0.2161,0.2181,0.2243,0.2325,0.2412,0.2558,0.2675,0.2804,0.2808,0.2884,0.3024,0.3116,0.3206,0.3096,0.3231,0.3234,0.2894,0.3004,0.2769,0.2746,0.3216,0.322,0.3224,0,0.218,0.2176,0.2177,0.2181,0.2188,0.2226,0.2334,0.2395,0.2576,0.2663,0.2837,0.2929,0.3141,0.3137,0.3385,0.3322,0.336,0.3414,0.3414,0.3139,0.2944,0.2725,0.2781,0.3272,0.3268,0.3265,0.3261,0,0.2179,0.2156,0.2165,0.2148,0.219,0.2248,0.2307,0.2453,0.2549,0.2771,0.2892,0.3108,0.327,0.3414,0.3471,0.3487,0.37,0.3698,0.3394,0.3362,0.3222,0.3163,0.3896,0.3896,0.3896,0.3896,0.3896,0,0.2122,0.2133,0.2177,0.2176,0.2252,0.2282,0.2417,0.2511,0.2685,0.283,0.298,0.3121,0.3388,0.3492,0.353,0.3499,0.372,0.3462,0.3391,0.3195,0.3138,0.3673,0.3647,0.3896,0.3896,0.3896,0.3896,0,0.2113,0.2117,0.2157,0.2219,0.2252,0.2335,0.2477,0.2567,0.2732,0.2934,0.3024,0.3234,0.3351,0.3434,0.3631,0.3536,0.3541,0.3448,0.3105,0.2994,0.3105,0.3081,0.3203,0.3192,0.3182,0.3175,0.3168,0,0.2095,0.2106,0.2213,0.226,0.2299,0.2407,0.2472,0.2607,0.2696,0.2956,0.3041,0.3218,0.3252,0.3275,0.3191,0.3102,0.3281,0.2785,0.2787,0.3139,0.3059,0.3049,0.3037,0.2575,0.2564,0.2555,0.2548,0,0.2086,0.2161,0.2212,0.2285,0.236,0.2446,0.2546,0.2592,0.2756,0.2889,0.2985,0.3023,0.3021,0.2813,0.2647,0.2577,0.2781,0.2588,0.316,0.2724,0.2533,0.2456,0.247,0.2468,0.2476,0.2482,0.2486,0.2489,0.2135,0.2155,0.2225,0.2294,0.2396,0.2446,0.2452,0.2497,0.2574,0.264,0.2756,0.267,0.2646,0.2249,0.2104,0.1986,0.2212,0.2133,0.2171,0.2216,0.2078,0.1875,0.1655,0.1658,0.166,0.1663,0.1665,0,0.2112,0.2145,0.2205,0.2297,0.2375,0.2472,0.2469,0.2374,0.2334,0.2353,0.2342,0.2034,0.181,0.1781,0.1469,0.1366,0.1484,0.131,0.1501,0.1576,0.1644,0.1489,0.0904,0.0902,0.09,0.0898,0,0,0.2133,0.2115,0.2103,0.221,0.234,0.235,0.2317,0.2145,0.2029,0.1823,0.1719,0.1724,0.1718,0.1318,0.1215,0.1024,0.1322,0.0968,0.1574,0.1879,0.1946,0.2093,0.1929,0,0,0,0,0]},{"header":{"parameterUnit":"m.s-1","parameterCategory":2,"la1":30.2991,"la2":30.254,"lo1":-89.0895,"lo2":-89.0444,"dy":0.0017,"dx":0.0017,"nx":28,"ny":28,"refTime":"2023-07-17T21:00:00:Z","depth":"2","parameterNumber":3,"parameterNumberName":"V-component_of_CURRENTS"},"data":[0,0,0,0,0,0,0,0,0,0,0,0,0,0,0,0,0,0,0,0,0,0,0,0,0,0,0,0,0,0,0,0,0,0,0,0,0,0,0,0,0,0,0,0,0,0,0,0,0,0,0,0,0,0,0,0,0,0,0.0084,0.0084,0,0.0076,0.0076,0.0076,0.0077,0.0078,0.0078,0.0078,0.0107,0.0108,0.0108,0,0,0,0,0,0,0,0,0,0,0,0,0,0.0057,0.0058,0.0084,0.0084,0.0084,0.0076,0.0076,0.0076,0.0077,0.0078,0.0078,0.0079,0.0107,0.0108,0.0108,0,0,0,0,0,0,0,0,0,0,0,0,0,0.0059,0.0058,0.0084,0.0086,0.0086,0.0076,0.0076,0.0076,0.0077,0.0078,0.0078,0.0079,0.0107,0.0108,0.0108,0.0102,0,0,0.011,0.0111,0,0,0,0,0,0,0,0,0.0059,0.006,0.0085,0.0086,0.0086,0.008,0.0077,0.0087,0.0077,0.0078,0.0078,0.0079,0.0103,0.0104,0.0098,0.0104,0.0105,0.0111,0.0111,0.0111,0.0111,0,0,0,0,0,0,0,0.0059,0.006,0.0079,0.0085,0.0086,0.0072,0.0073,0.0079,0.0087,0.0078,0.0079,0.0081,0.0103,0.0097,0.0098,0.0105,0.011,0.0111,0.0112,0.0112,0.0138,0.0139,0,0,0,0,0,0,0.0066,0.006,0.0079,0.0079,0.0076,0.0073,0.0074,0.008,0.0086,0.0088,0.0081,0.0081,0.0095,0.0098,0.01,0.0083,0.0111,0.0112,0.0112,0.0138,0.0139,0.0139,0,0,0,0,0,0,0.0066,0.0068,0.0079,0.0071,0.0072,0.0073,0.008,0.0079,0.0082,0.0088,0.009,0.0085,0.0096,0.0099,0.0096,0.0085,0.0112,0.0113,0.0138,0.0138,0.0139,0.0058,0,0,0,0,0,0,0.0065,0.0068,0.0075,0.0071,0.0072,0.0079,0.0079,0.0079,0.0084,0.0084,0.0092,0.0095,0.0097,0.0095,0.0097,0.0087,0.0113,0.0137,0.0138,0.0139,0.006,0.0055,0.0051,0,0,0,0,0,0.0064,0.0075,0.0075,0.0077,0.0082,0.0079,0.0078,0.0079,0.0083,0.0083,0.0079,0.0095,0.0101,0.0095,0.0097,0.0087,0.0137,0.0138,0.0139,0.0062,0.0056,0.0051,0,0,0,0,0,0,0.0066,0.0076,0.0076,0.0089,0.0086,0.008,0.0083,0.0083,0.0079,0.0081,0.0085,0.0087,0.0081,0.0104,0.0097,0.0102,0.0128,0.0129,0.0069,0.0064,0.0059,0.0108,0.0114,0,0,0,0,0,0.0069,0.0081,0.0082,0.009,0.0091,0.0087,0.0087,0.0086,0.0083,0.0082,0.0085,0.0092,0.0084,0.009,0.0092,0.0091,0.0166,0.0095,0.0091,0.0086,0.0131,0.0287,0.0301,0.0141,0.0141,0.0141,0,0,0.007,0.0079,0.0083,0.0091,0.0089,0.0077,0.0088,0.009,0.0076,0.0086,0.0073,0.0073,0.0081,0.0068,0.0071,0.0086,0.0145,0.0087,0.0083,0.0131,0.0289,0.0305,0.032,0.0142,0.0141,0.0141,0,0,0.0073,0.0086,0.0093,0.0084,0.0086,0.008,0.0082,0.0079,0.0077,0.0059,0.006,0.0068,0.0053,0.0064,0.0063,0.005,0.0114,0.0041,0.0059,0.0207,0.0223,0.0238,0.0241,0.0258,0.0044,0.0044,0.0044,0,0.0072,0.0078,0.0092,0.0084,0.0082,0.008,0.0075,0.006,0.0053,0.0076,0.0051,0.0076,0.0058,0.008,0.0049,0.0041,0.0101,0.0063,0.0204,0.0221,0.0238,0.024,0.0259,0.004,0.004,0.0041,0.0041,0,0.0072,0.0067,0.0068,0.0059,0.0061,0.0053,0.0042,0.0051,0.0046,0.0049,0.0077,0.006,0.0099,0.0066,0.0033,0.0129,0.0115,0.0173,0.0217,0.025,0.0247,0.0268,0.0034,0.0036,0.0037,0.0038,0,0,0.0086,0.0072,0.007,0.007,0.0048,0.0059,0.0046,0.0065,0.0109,0.0081,0.0153,0.009,0.0124,0.013,0.0114,0.0206,0.0288,0.0229,0.0238,0.0229,0.0533,0.0412,0.0423,0.0393,0.0399,0.0403,0.0441,0,0.0078,0.0064,0.0066,0.0055,0.0046,0.0058,0.0065,0.0087,0.0106,0.0171,0.0178,0.0217,0.0132,0.0162,0.0234,0.0328,0.0362,0.0267,0.0509,0.0513,0.0405,0.0453,0.0438,0.0467,0.0463,0.0466,0.0469,0,0.0068,0.0066,0.0047,0.0081,0.0089,0.0086,0.0161,0.0167,0.0242,0.0271,0.0323,0.0347,0.0422,0.0372,0.053,0.0485,0.0488,0.0531,0.0537,0.0494,0.044,0.0459,0.0507,0.0506,0.0503,0.05,0.0498,0,0.0062,0.0064,0.0057,0.0049,0.0072,0.0104,0.0136,0.0202,0.0266,0.0353,0.0444,0.0518,0.0617,0.068,0.0683,0.0656,0.0871,0.0858,0.0718,0.0704,0.0777,0.0761,0.0966,0.0966,0.0966,0.0966,0.0966,0,0.0038,0.0042,0.0057,0.0041,0.0108,0.0119,0.0214,0.0259,0.0371,0.0507,0.0502,0.0651,0.073,0.0827,0.078,0.0808,0.0946,0.0741,0.075,0.0728,0.0708,0.0842,0.0827,0.0967,0.0967,0.0966,0.0966,0,0.002,0.0006,0.0019,0.0057,0.0086,0.0134,0.0261,0.0359,0.0435,0.0627,0.0672,0.0832,0.0964,0.0936,0.107,0.0962,0.0974,0.0914,0.0788,0.0781,0.0659,0.064,0.081,0.0807,0.0805,0.0803,0.0801,0,0.001,-0.0002,0.0038,0.0083,0.0101,0.0184,0.0276,0.0369,0.0502,0.0755,0.0889,0.104,0.1154,0.1197,0.1082,0.0952,0.0941,0.0805,0.0748,0.0674,0.0665,0.0649,0.0633,0.0763,0.0761,0.0759,0.0758,0,0.0021,0.0022,0.0048,0.0125,0.0207,0.0331,0.0472,0.0603,0.078,0.0945,0.1219,0.1315,0.131,0.1234,0.0995,0.0901,0.0827,0.0763,0.0863,0.0775,0.0627,0.0617,0.0605,0.0744,0.0745,0.0746,0.0747,0.0747,0.0058,0.0097,0.0133,0.0228,0.0325,0.0518,0.0663,0.0846,0.1082,0.1342,0.1418,0.1488,0.1359,0.105,0.0893,0.0696,0.0725,0.0632,0.064,0.065,0.0609,0.0464,0.0533,0.0533,0.0533,0.0534,0.0534,0,0.0135,0.0184,0.0262,0.0394,0.0546,0.0575,0.084,0.0992,0.1296,0.1409,0.1548,0.1361,0.1213,0.1018,0.0711,0.0536,0.0555,0.0472,0.0546,0.056,0.0573,0.0531,0.0433,0.0432,0.0432,0.0431,0,0,0.0189,0.0286,0.034,0.0595,0.0699,0.0916,0.1092,0.1276,0.1376,0.1498,0.1466,0.1416,0.1202,0.0949,0.0754,0.0588,0.0607,0.0548,0.0644,0.0769,0.0783,0.0678,0.063,0,0,0,0,0]}],[{"header":{"parameterUnit":"m.s-1","parameterCategory":2,"la1":30.2991,"la2":30.254,"lo1":-89.0895,"lo2":-89.0444,"dy":0.0017,"dx":0.0017,"nx":28,"ny":28,"refTime":"2023-07-17T21:00:00:Z","depth":"4","parameterNumber":2,"parameterNumberName":"U-component_of_CURRENTS"},"data":[0,0,0,0,0,0,0,0,0,0,0,0,0,0,0,0,0,0,0,0,0,0,0,0,0,0,0,0,0,0,0,0,0,0,0,0,0,0,0,0,0,0,0,0,0,0,0,0,0,0,0,0,0,0,0,0,0,0,0.0927,0.0927,0,0.0906,0.0905,0.0904,0.0951,0.0953,0.0955,0.0957,0.0961,0.0959,0.0957,0,0,0,0,0,0,0,0,0,0,0,0,0,0.0918,0.0918,0.0927,0.0927,0.0927,0.0906,0.0905,0.0904,0.0951,0.0953,0.0956,0.0958,0.0961,0.0959,0.0957,0,0,0,0,0,0,0,0,0,0,0,0,0,0.0907,0.0918,0.0927,0.0952,0.0954,0.0906,0.0905,0.0904,0.095,0.0953,0.0956,0.0959,0.0962,0.0959,0.0957,0.0881,0,0,0.0949,0.0948,0,0,0,0,0,0,0,0,0.0908,0.0907,0.0948,0.095,0.0953,0.0939,0.0904,0.0899,0.095,0.0946,0.0957,0.096,0.0957,0.0955,0.0936,0.0881,0.0881,0.0948,0.0947,0.0946,0.0945,0,0,0,0,0,0,0,0.0909,0.0908,0.0913,0.0948,0.0951,0.0934,0.0936,0.0902,0.0932,0.0947,0.0951,0.0956,0.0958,0.0939,0.0937,0.0881,0.0949,0.0946,0.0945,0.0944,0.0899,0.0899,0,0,0,0,0,0,0.0923,0.0909,0.0914,0.0913,0.0943,0.0932,0.0934,0.0936,0.0932,0.0935,0.0954,0.0959,0.0942,0.094,0.0937,0.0936,0.0946,0.0943,0.0942,0.0898,0.0899,0.0899,0,0,0,0,0,0,0.0923,0.0923,0.0915,0.0915,0.0913,0.093,0.0931,0.0934,0.0946,0.0938,0.0941,0.0968,0.0944,0.0941,0.0943,0.0934,0.0942,0.094,0.0898,0.0898,0.0899,0.0877,0,0,0,0,0,0,0.0922,0.0923,0.0938,0.0916,0.0914,0.0897,0.0929,0.0932,0.0945,0.0952,0.0949,0.0951,0.0946,0.0947,0.0941,0.093,0.0938,0.0897,0.0898,0.0899,0.0877,0.0877,0.0876,0,0,0,0,0,0.0922,0.0924,0.0938,0.094,0.0931,0.0897,0.0893,0.0912,0.0943,0.0935,0.0955,0.0953,0.0948,0.0945,0.0937,0.0926,0.0897,0.0898,0.0899,0.0877,0.0877,0.0876,0,0,0,0,0,0,0.0925,0.0929,0.0944,0.0949,0.0932,0.0908,0.0904,0.0918,0.0921,0.0945,0.0944,0.0945,0.0939,0.0941,0.0938,0.092,0.0926,0.0925,0.0913,0.0912,0.0911,0.0923,0.0936,0,0,0,0,0,0.0932,0.0941,0.0929,0.0933,0.0922,0.0916,0.0911,0.0926,0.0923,0.0929,0.0917,0.0926,0.0926,0.0931,0.0914,0.0898,0.0943,0.0893,0.0892,0.0892,0.0899,0.1042,0.1056,0.0902,0.0902,0.0902,0,0,0.0929,0.0939,0.0941,0.0935,0.0921,0.087,0.0919,0.0914,0.0894,0.0926,0.0891,0.0909,0.092,0.0905,0.0904,0.0914,0.0939,0.0893,0.0892,0.09,0.1045,0.106,0.1074,0.0903,0.0902,0.0902,0,0,0.0896,0.0934,0.091,0.0882,0.0878,0.087,0.0873,0.0849,0.087,0.0844,0.0875,0.0901,0.0864,0.0886,0.0893,0.0881,0.0925,0.088,0.0892,0.103,0.1045,0.1059,0.1049,0.1063,0.0891,0.0891,0.0891,0,0.0898,0.0858,0.0895,0.084,0.0815,0.0863,0.0802,0.0811,0.0797,0.0826,0.0835,0.0853,0.0852,0.0883,0.0887,0.0876,0.0938,0.0889,0.1033,0.1048,0.1062,0.1051,0.1066,0.089,0.089,0.089,0.089,0,0.0811,0.0779,0.0755,0.0706,0.0691,0.0653,0.0664,0.0675,0.0712,0.0734,0.078,0.0804,0.0843,0.0835,0.0853,0.0949,0.0944,0.1009,0.1037,0.1077,0.106,0.1076,0.0888,0.0889,0.0889,0.0889,0,0,0.0814,0.0714,0.0707,0.0663,0.0621,0.0607,0.0589,0.0604,0.0663,0.0664,0.0738,0.0731,0.0815,0.0833,0.0879,0.0983,0.1093,0.1051,0.1059,0.1042,0.1327,0.1185,0.1188,0.123,0.1234,0.1238,0.1242,0,0.0732,0.0601,0.059,0.0488,0.0412,0.0457,0.0472,0.0516,0.0574,0.0662,0.0747,0.0829,0.08,0.0882,0.0968,0.1096,0.1152,0.108,0.129,0.1292,0.1167,0.121,0.1253,0.1254,0.1258,0.1261,0.1263,0,0.063,0.0568,0.0432,0.0409,0.0399,0.0389,0.0464,0.0486,0.0628,0.0702,0.0791,0.0882,0.0995,0.1022,0.1187,0.1165,0.1234,0.1303,0.1308,0.1206,0.1185,0.1229,0.1293,0.129,0.1288,0.1286,0.1284,0,0.0568,0.0468,0.0373,0.0333,0.0313,0.0348,0.0404,0.0514,0.0598,0.0771,0.0873,0.0992,0.1119,0.1236,0.1323,0.1313,0.1525,0.1529,0.1419,0.1404,0.154,0.1527,0.166,0.166,0.166,0.166,0.166,0,0.0444,0.0369,0.0364,0.0292,0.0334,0.0352,0.0448,0.0534,0.0706,0.0827,0.0935,0.1052,0.1215,0.1333,0.1381,0.1426,0.1562,0.1413,0.1429,0.1512,0.1496,0.1545,0.1532,0.166,0.166,0.166,0.166,0,0.0314,0.028,0.0202,0.0229,0.0272,0.032,0.0483,0.0562,0.0739,0.0904,0.0984,0.1161,0.1294,0.1372,0.156,0.1491,0.1563,0.1545,0.1541,0.1558,0.1304,0.129,0.1391,0.1386,0.1383,0.138,0.1377,0,0.022,0.0135,0.0169,0.0201,0.0217,0.0311,0.0398,0.0573,0.0657,0.0941,0.1022,0.1217,0.1304,0.1419,0.1495,0.1517,0.1513,0.1478,0.1436,0.1287,0.1294,0.1285,0.1275,0.1371,0.1371,0.137,0.1369,0,0.0047,0.0066,0.0036,0.0115,0.0199,0.0268,0.0404,0.0483,0.0699,0.0853,0.1071,0.1169,0.1295,0.1366,0.14,0.1419,0.147,0.144,0.1446,0.1406,0.1266,0.1274,0.1268,0.1356,0.1358,0.1359,0.136,0,-0.0012,-0.0037,-0.0024,0.0062,0.0139,0.0227,0.0303,0.0453,0.0593,0.0908,0.0965,0.117,0.1316,0.1315,0.1354,0.1351,0.1307,0.1239,0.1255,0.1269,0.1225,0.1028,0.1067,0,0,0,0,0,-0.0055,-0.0084,-0.0061,0.0026,0.0085,0.0159,0.0307,0.039,0.0601,0.0734,0.0869,0.0993,0.1098,0.1175,0.1142,0.1207,0.1254,0.115,0.1169,0.1287,0.1302,0.1258,0,0,0,0,0,0,-0.0074,-0.0094,-0.0088,-0.0022,0.0029,0.0111,0.0209,0.0348,0.044,0.0659,0.0733,0.088,0.0989,0.1117,0.1114,0.1124,0.1098,0.125,0.1245,0.1279,0.1292,0.1304,0.1263,0,0,0,0,0]},{"header":{"parameterUnit":"m.s-1","parameterCategory":2,"la1":30.2991,"la2":30.254,"lo1":-89.0895,"lo2":-89.0444,"dy":0.0017,"dx":0.0017,"nx":28,"ny":28,"refTime":"2023-07-17T21:00:00:Z","depth":"4","parameterNumber":3,"parameterNumberName":"V-component_of_CURRENTS"},"data":[0,0,0,0,0,0,0,0,0,0,0,0,0,0,0,0,0,0,0,0,0,0,0,0,0,0,0,0,0,0,0,0,0,0,0,0,0,0,0,0,0,0,0,0,0,0,0,0,0,0,0,0,0,0,0,0,0,0,0.0003,0.0003,0,0.0017,0.0017,0.0017,0.0014,0.0014,0.0014,0.0013,0.0021,0.0021,0.0022,0,0,0,0,0,0,0,0,0,0,0,0,0,-0.0009,-0.0009,0.0003,0.0003,0.0004,0.0017,0.0017,0.0017,0.0014,0.0014,0.0014,0.0013,0.0021,0.0021,0.0022,0,0,0,0,0,0,0,0,0,0,0,0,0,0.0,-0.0008,0.0003,0.0003,0.0003,0.0017,0.0017,0.0017,0.0014,0.0014,0.0013,0.0013,0.002,0.0021,0.0022,0.0035,0,0,0.0024,0.0024,0,0,0,0,0,0,0,0,-0.0,0.0001,0.0003,0.0003,0.0003,0.0013,0.0015,0.0023,0.0014,0.0011,0.0013,0.0013,0.0018,0.0018,0.0023,0.0036,0.0036,0.0024,0.0025,0.0025,0.0025,0,0,0,0,0,0,0,-0.0001,0.0,0.0009,0.0003,0.0003,0.0008,0.0009,0.0017,0.0017,0.0011,0.0011,0.0011,0.0018,0.0022,0.0023,0.0036,0.0024,0.0025,0.0025,0.0025,0.0063,0.0064,0,0,0,0,0,0,-0.0004,-0.0,0.0009,0.001,-0.0,0.0008,0.0009,0.0011,0.0017,0.0017,0.0012,0.0011,0.0021,0.0022,0.0023,0.0074,0.0025,0.0026,0.0026,0.0062,0.0063,0.0064,0,0,0,0,0,0,-0.0004,-0.0003,0.0008,0.0004,0.0006,0.0009,0.0011,0.0011,0.0017,0.0017,0.0018,0.0017,0.0021,0.0022,0.0031,0.0073,0.0026,0.0027,0.0062,0.0063,0.0063,0.0153,0,0,0,0,0,0,-0.0005,-0.0003,-0.0001,0.0004,0.0006,0.0029,0.0011,0.0012,0.0018,0.0017,0.0022,0.0022,0.0021,0.003,0.0032,0.0073,0.0027,0.0061,0.0062,0.0063,0.0149,0.0157,0.0163,0,0,0,0,0,-0.0005,0.0005,-0.0001,0.0,0.0008,0.003,0.0032,0.0033,0.0019,0.0034,0.0026,0.0022,0.0038,0.0031,0.0033,0.0075,0.0061,0.0062,0.0063,0.0146,0.0155,0.0163,0,0,0,0,0,0,-0.0,0.0005,-0.0001,0.0009,0.0022,0.003,0.0041,0.0036,0.0042,0.0037,0.0029,0.003,0.0051,0.0043,0.0035,0.0085,0.0049,0.0051,0.0112,0.0121,0.0127,0.0119,0.0028,0,0,0,0,0,0.0001,0.0008,0.0017,0.0024,0.0034,0.0036,0.0043,0.0044,0.0048,0.005,0.0055,0.0054,0.0059,0.0072,0.0071,0.0104,0.0068,0.0129,0.0136,0.0142,0.0134,0.0103,0.0107,0.0068,0.0068,0.0068,0,0,0.0003,0.0006,0.001,0.0025,0.0034,0.0076,0.004,0.0058,0.0095,0.005,0.0098,0.0075,0.0067,0.0101,0.0111,0.0102,0.0138,0.0144,0.015,0.0138,0.0105,0.0109,0.0112,0.0069,0.0069,0.0069,0,0,0.0028,0.0018,0.0044,0.0066,0.0084,0.0095,0.0102,0.0119,0.0129,0.0165,0.0135,0.0117,0.0159,0.0143,0.0144,0.0182,0.0166,0.0205,0.0252,0.0223,0.0226,0.0228,0.0205,0.0204,0.0221,0.0221,0.0221,0,0.0034,0.0068,0.0055,0.0099,0.0128,0.0111,0.0164,0.018,0.0197,0.019,0.0195,0.0182,0.0174,0.0179,0.0205,0.0199,0.0189,0.0228,0.0233,0.0234,0.0235,0.021,0.0208,0.0226,0.0225,0.0225,0.0224,0,0.0091,0.0125,0.0146,0.0199,0.0227,0.0265,0.0291,0.0301,0.0307,0.0304,0.0299,0.0275,0.0258,0.0267,0.0263,0.0266,0.026,0.0238,0.0215,0.0244,0.0216,0.0213,0.0232,0.023,0.0229,0.0228,0,0,0.0097,0.0173,0.0183,0.0223,0.0285,0.0308,0.0363,0.0387,0.0386,0.0399,0.0402,0.0398,0.0346,0.034,0.0314,0.0302,0.0308,0.0297,0.0293,0.028,0.0266,0.0262,0.0257,0.0306,0.0306,0.0305,0.0251,0,0.0153,0.025,0.0275,0.0369,0.0426,0.0429,0.0485,0.0492,0.048,0.0477,0.0426,0.0428,0.0392,0.0389,0.0365,0.0316,0.0301,0.0325,0.0233,0.0229,0.0227,0.0253,0.0304,0.0248,0.0247,0.0247,0.0246,0,0.0217,0.0271,0.0381,0.0452,0.0475,0.0534,0.056,0.0598,0.0572,0.0563,0.0518,0.0476,0.0448,0.0425,0.0343,0.0372,0.0329,0.029,0.0286,0.0243,0.0218,0.0206,0.0239,0.0239,0.024,0.024,0.0241,0,0.0243,0.0341,0.0428,0.0463,0.0548,0.0585,0.0624,0.062,0.0638,0.0611,0.061,0.0537,0.0524,0.0454,0.0371,0.0372,0.0285,0.0261,0.0205,0.0204,0.0183,0.0181,0.02,0.02,0.0201,0.0201,0.0201,0,0.0303,0.0364,0.0448,0.0501,0.0583,0.0628,0.0685,0.0691,0.0704,0.0712,0.066,0.0642,0.0538,0.0469,0.039,0.0291,0.0291,0.0211,0.0189,0.0224,0.0228,0.0181,0.018,0.0199,0.0199,0.0199,0.02,0,0.0329,0.0388,0.0481,0.0578,0.0612,0.0671,0.0759,0.0774,0.0792,0.0803,0.0815,0.0736,0.0645,0.0528,0.0401,0.0318,0.0221,0.0186,0.0243,0.0225,0.0153,0.0157,0.011,0.0109,0.0109,0.0108,0.0108,0,0.0352,0.041,0.0533,0.0577,0.0632,0.0718,0.0776,0.0829,0.0844,0.0846,0.0852,0.0779,0.0709,0.0526,0.04,0.024,0.0213,0.0161,0.0143,0.016,0.0144,0.0148,0.0152,0.0107,0.0107,0.0107,0.0107,0,0.0379,0.0428,0.049,0.0605,0.0684,0.0768,0.0852,0.0872,0.0911,0.0927,0.088,0.0782,0.0672,0.0513,0.04,0.0279,0.0193,0.0155,0.0154,0.0137,0.0156,0.0141,0.0146,0.0105,0.0105,0.0105,0.0105,0,0.0377,0.0422,0.0513,0.0606,0.0699,0.0791,0.0839,0.0876,0.0915,0.0913,0.0887,0.0781,0.0713,0.0534,0.0424,0.0313,0.0269,0.0219,0.0215,0.0215,0.0259,0.0299,0.0275,0,0,0,0,0,0.0371,0.0426,0.0503,0.061,0.07,0.0777,0.0868,0.0902,0.0935,0.0908,0.0904,0.0803,0.0627,0.0546,0.0432,0.0398,0.0244,0.0259,0.0184,0.0095,0.0097,0.0129,0,0,0,0,0,0,0.0368,0.0441,0.0495,0.0598,0.0664,0.0785,0.0851,0.088,0.0867,0.087,0.078,0.0756,0.0588,0.0688,0.0421,0.0388,0.0321,0.0187,0.0184,0.0094,0.0096,0.0097,0.0131,0,0,0,0,0]}]]